Corinth, MS

1:38 AM CDT on April 27, 2017 (GMT -0500)
Turner

Weather History for KCRX - December, 2013

Change the Weather History Date:

Sunday, December 8, 2013

  Actual Average Record
Temperature  
Mean Temperature 36 °F -  
Max Temperature 39 °F 55 °F 78 °F (1966)
Min Temperature 32 °F 34 °F 18 °F (1965)
Degree Days  
Heating Degree Days 30    
Moisture  
Dew Point 34 °F    
Average Humidity 92    
Maximum Humidity 100    
Minimum Humidity 87    
Precipitation  
Precipitation 0.13 in - - ()
Sea Level Pressure  
Sea Level Pressure 30.16 in    
Wind  
Wind Speed 4 mph (WSW)    
Max Wind Speed 8 mph    
Max Gust Speed -    
Visibility 5 miles    
Events Rain    
Averages and records for this station are not official NWS values.
T = Trace of Precipitation, MM = Missing Value Source: NWS Daily Summary

Daily Weather History Graph

Daily Weather History Graph

Search for Another Location

Airport or City:

Trip Planner

Search our weather history database for the weather conditions in past years. The results will help you decide how hot, cold, wet, or windy it might be!

Date:

Astronomy

Dec. 08, 2013 Rise Set
Actual Time 6:49 AM CST 4:42 PM CST
Civil Twilight 6:21 AM CST 5:10 PM CST
Nautical Twilight 5:50 AM CST 5:42 PM CST
Astronomical Twilight 5:19 AM CST 6:13 PM CST
Moon 11:21 AM CST (12/8) 11:19 PM CST (12/8)
Length of Visible Light 10h 48m
Length of Day
9h 53m
Waxing Crescent, 40% of the Moon is Illuminated
Dec 8
Waxing Crescent
Dec 9
First Quarter
Dec 17
Full
Dec 25
Last Quarter
Jan 1
New

Hourly Weather History & Observations

Time (CST) Temp. Windchill Dew Point Humidity Pressure Visibility Wind Dir Wind Speed Gust Speed Precip Events Conditions
12:10 AM 32.0 °F 27.5 °F 28.4 °F 87% 30.28 in 7.0 mi North 4.6 mph - N/A   Overcast
12:30 AM 32.0 °F 25.6 °F 28.4 °F 87% 30.28 in 8.0 mi North 6.9 mph - N/A   Overcast
12:50 AM 32.0 °F 26.4 °F 28.4 °F 87% 30.27 in 7.0 mi North 5.8 mph - N/A   Overcast
1:10 AM 32.0 °F 25.6 °F 28.4 °F 87% 30.27 in 7.0 mi North 6.9 mph - N/A   Overcast
1:30 AM 32.0 °F 26.4 °F 28.4 °F 87% 30.26 in 7.0 mi North 5.8 mph - N/A   Overcast
1:50 AM 32.0 °F 27.5 °F 28.4 °F 87% 30.26 in 7.0 mi North 4.6 mph - N/A   Overcast
2:10 AM 32.0 °F 27.5 °F 28.4 °F 87% 30.24 in 7.0 mi NNE 4.6 mph - N/A   Overcast
2:30 AM 32.0 °F 26.4 °F 30.2 °F 93% 30.23 in 4.0 mi NNE 5.8 mph - 0.02 in Rain Light Rain
2:50 AM 32.0 °F 26.4 °F 30.2 °F 93% 30.22 in 3.0 mi ENE 5.8 mph - 0.02 in Rain Light Rain
3:10 AM 32.0 °F 27.5 °F 30.2 °F 93% 30.25 in 3.0 mi NNW 4.6 mph - 0.01 in Rain Light Rain
3:30 AM 32.0 °F 28.7 °F 32.0 °F 100% 30.22 in 2.5 mi NNE 3.5 mph - 0.01 in Rain Light Rain
3:50 AM 32.0 °F 26.4 °F 32.0 °F 100% 30.21 in 1.8 mi NNE 5.8 mph - 0.03 in Rain Light Rain
4:10 AM 32.0 °F 27.5 °F 32.0 °F 100% 30.22 in 2.5 mi North 4.6 mph - 0.01 in Rain Light Rain
4:30 AM 32.0 °F 26.4 °F 32.0 °F 100% 30.20 in 2.5 mi NE 5.8 mph - 0.02 in Rain Light Rain
4:50 AM 32.0 °F 26.4 °F 32.0 °F 100% 30.18 in 3.0 mi East 5.8 mph - 0.02 in Rain Light Rain
5:10 AM 32.0 °F - 32.0 °F 100% 30.19 in 4.0 mi Calm Calm - N/A   Overcast
5:30 AM 32.0 °F 27.5 °F 32.0 °F 100% 30.19 in 3.0 mi East 4.6 mph - N/A Rain Light Rain
5:50 AM 32.0 °F - 32.0 °F 100% 30.19 in 2.0 mi Calm Calm - N/A Rain Light Rain
6:10 AM 32.0 °F 27.5 °F 32.0 °F 100% 30.19 in 2.5 mi SSE 4.6 mph - N/A Rain Light Rain
6:30 AM 32.0 °F 27.5 °F 32.0 °F 100% 30.19 in 3.0 mi SSE 4.6 mph - N/A Rain Light Rain
6:50 AM 32.0 °F - 32.0 °F 100% 30.19 in 4.0 mi Calm Calm - N/A   Overcast
7:10 AM 32.0 °F - 32.0 °F 100% 30.21 in 5.0 mi Calm Calm - N/A   Overcast
7:30 AM 33.8 °F - 32.0 °F 93% 30.20 in 5.0 mi Calm Calm - N/A   Overcast
7:50 AM 33.8 °F - 32.0 °F 93% 30.20 in 3.0 mi Calm Calm - N/A   Overcast
8:10 AM 33.8 °F - 32.0 °F 93% 30.20 in 2.5 mi Calm Calm - N/A   Overcast
8:30 AM 33.8 °F - 32.0 °F 93% 30.20 in 2.0 mi Calm Calm - N/A   Overcast
8:50 AM 33.8 °F - 32.0 °F 93% 30.19 in 2.0 mi Calm Calm - N/A Rain Light Rain
9:10 AM 33.8 °F 30.8 °F 32.0 °F 93% 30.18 in 2.5 mi East 3.5 mph - N/A   Overcast
9:30 AM 35.6 °F 32.8 °F 32.0 °F 87% 30.18 in 2.5 mi ESE 3.5 mph - N/A   Overcast
9:50 AM 35.6 °F 32.8 °F 32.0 °F 87% 30.18 in 3.0 mi South 3.5 mph - N/A   Overcast
10:10 AM 35.6 °F - 33.8 °F 93% 30.18 in 3.0 mi Calm Calm - N/A   Overcast
10:30 AM 35.6 °F 31.7 °F 33.8 °F 93% 30.19 in 4.0 mi SSW 4.6 mph - N/A   Overcast
10:50 AM 35.6 °F 30.7 °F 33.8 °F 93% 30.18 in 4.0 mi South 5.8 mph - N/A   Overcast
11:10 AM 37.4 °F 33.8 °F 35.6 °F 93% 30.17 in 5.0 mi South 4.6 mph - N/A   Overcast
11:30 AM 37.4 °F 32.1 °F 35.6 °F 93% 30.16 in 5.0 mi South 6.9 mph - N/A   Overcast
11:50 AM 37.4 °F 32.8 °F 35.6 °F 93% 30.15 in 5.0 mi SSW 5.8 mph - N/A   Overcast
12:10 PM 37.4 °F 32.1 °F 35.6 °F 93% 30.13 in 7.0 mi SSW 6.9 mph - N/A   Overcast
12:30 PM 39.2 °F 35.9 °F 35.6 °F 87% 30.13 in 7.0 mi South 4.6 mph - N/A   Overcast
12:50 PM 39.2 °F 37.0 °F 35.6 °F 87% 30.11 in 8.0 mi South 3.5 mph - N/A   Overcast
1:10 PM 39.2 °F 34.2 °F 35.6 °F 87% 30.11 in 9.0 mi South 6.9 mph - N/A   Overcast
1:30 PM 39.2 °F 35.0 °F 35.6 °F 87% 30.10 in 8.0 mi SSW 5.8 mph - N/A   Overcast
1:50 PM 39.2 °F 35.9 °F 35.6 °F 87% 30.11 in 8.0 mi South 4.6 mph - N/A Rain Light Rain
2:10 PM 39.2 °F 35.9 °F 35.6 °F 87% 30.10 in 8.0 mi SW 4.6 mph - N/A Rain Light Rain
2:30 PM 39.2 °F 35.9 °F 35.6 °F 87% 30.10 in 9.0 mi SW 4.6 mph - N/A   Overcast
2:50 PM 39.2 °F 37.0 °F 35.6 °F 87% 30.09 in 9.0 mi SSW 3.5 mph - N/A   Overcast
3:10 PM 39.2 °F 35.9 °F 35.6 °F 87% 30.10 in 8.0 mi SSW 4.6 mph - N/A   Overcast
3:30 PM 39.2 °F - 35.6 °F 87% 30.09 in 8.0 mi Calm Calm - N/A   Overcast
3:50 PM 39.2 °F 33.6 °F 35.6 °F 87% 30.09 in 7.0 mi South 8.1 mph - N/A   Overcast
4:10 PM 39.2 °F 37.0 °F 35.6 °F 87% 30.10 in 2.0 mi SW 3.5 mph - 0.02 in Rain Rain
4:30 PM 39.2 °F - 35.6 °F 87% 30.10 in 1.5 mi Calm Calm - 0.05 in Rain Rain
4:50 PM 39.2 °F 37.0 °F 37.4 °F 93% 30.09 in 3.0 mi SSE 3.5 mph - 0.06 in Rain Light Rain
5:10 PM 39.2 °F 37.0 °F 37.4 °F 93% 30.09 in 4.0 mi South 3.5 mph - N/A   Overcast
5:30 PM 39.2 °F 34.2 °F 37.4 °F 93% 30.08 in 2.5 mi SSE 6.9 mph - N/A Rain Light Rain
5:50 PM 39.2 °F 34.2 °F 37.4 °F 93% 30.08 in 3.0 mi South 6.9 mph - N/A Rain Light Rain
6:10 PM 39.2 °F 35.9 °F 37.4 °F 93% 30.09 in 4.0 mi SSW 4.6 mph - N/A Rain Light Rain
6:30 PM 39.2 °F 35.9 °F 37.4 °F 93% 30.08 in 5.0 mi South 4.6 mph - N/A   Overcast
6:50 PM 39.2 °F 35.9 °F 37.4 °F 93% 30.11 in 5.0 mi West 4.6 mph - N/A   Overcast
7:10 PM 39.2 °F 35.9 °F 37.4 °F 93% 30.11 in 5.0 mi West 4.6 mph - N/A   Overcast
7:30 PM 39.2 °F 35.0 °F 37.4 °F 93% 30.12 in 5.0 mi WNW 5.8 mph - N/A Rain Light Rain
7:50 PM 39.2 °F 37.0 °F 37.4 °F 93% 30.12 in 6.0 mi West 3.5 mph - N/A Rain Light Rain
8:10 PM 39.2 °F 35.0 °F 37.4 °F 93% 30.12 in 7.0 mi WSW 5.8 mph - N/A   Overcast
8:30 PM 39.2 °F 37.0 °F 37.4 °F 93% 30.11 in 7.0 mi West 3.5 mph - N/A   Overcast
8:50 PM 39.2 °F 35.9 °F 37.4 °F 93% 30.10 in 6.0 mi WNW 4.6 mph - N/A   Overcast
9:10 PM 39.2 °F 35.9 °F 37.4 °F 93% 30.10 in 7.0 mi WNW 4.6 mph - N/A   Overcast
9:30 PM 39.2 °F 35.9 °F 37.4 °F 93% 30.11 in 7.0 mi WNW 4.6 mph - N/A   Overcast
9:50 PM 39.2 °F - 37.4 °F 93% 30.11 in 9.0 mi Calm Calm - N/A   Overcast
10:10 PM 39.2 °F 37.0 °F 35.6 °F 87% 30.11 in 9.0 mi West 3.5 mph - N/A   Overcast
10:30 PM 39.2 °F 35.9 °F 37.4 °F 93% 30.13 in 6.0 mi NW 4.6 mph - N/A   Overcast
10:50 PM 39.2 °F 37.0 °F 35.6 °F 87% 30.13 in 5.0 mi WNW 3.5 mph - N/A   Overcast
11:10 PM 39.2 °F 35.9 °F 35.6 °F 87% 30.12 in 5.0 mi NW 4.6 mph - N/A Rain Light Rain
11:30 PM 37.4 °F 32.8 °F 35.6 °F 93% 30.12 in 3.0 mi NNW 5.8 mph - N/A Rain Light Rain
11:50 PM 37.4 °F 31.4 °F 35.6 °F 93% 30.13 in 6.0 mi NW 8.1 mph - N/A   Overcast